This demonstration page uses our WeatherBlox Daily Observations layout. Learn more.

38.88101, -77.10428

Hourly Observations for January 6, 2020

Temp ( °F °C ) Dew Point ( °F °C ) Humidity (%) Winds ( mph kmh ) Pressure ( in mb ) Visibility ( mi km ) Precip ( " mm )
12:52 am 00:52 Cloudy 36 2.2 26 -3.3 67 67 SE 5 7 30 1016 10 16.0934 0 0
1:52 am 01:52 Cloudy 37 2.8 26 -3.3 65 65 SSE 5 7 29.98 1015 10 16.0934 0 0
2:52 am 02:52 Cloudy 37 2.8 27 -2.8 67 67 SSW 6 9 29.98 1015 10 16.0934 0 0
3:52 am 03:52 Cloudy 37 2.8 28 -2.2 70 70 SSW 6 9 29.99 1016 10 16.0934 0 0
4:52 am 04:52 Cloudy 37 2.8 28 -2.2 70 70 SSW 6 9 30 1016 10 16.0934 0 0
5:52 am 05:52 Cloudy 38 3.3 30 -1.1 73 73 S 7 11 30 1016 10 16.0934 0 0
6:52 am 06:52 Cloudy 38 3.3 30 -1.1 73 73 SSW 6 9 30.01 1016 10 16.0934 0 0
7:52 am 07:52 Mostly Cloudy 39 3.9 29 -1.7 67 67 SSW 9 15 30.02 1017 10 16.0934 0 0
8:52 am 08:52 Partly Cloudy 41 5 30 -1.1 65 65 SSW 9 15 30.04 1017 10 16.0934 0 0
9:52 am 09:52 Mostly Sunny 44 6.7 33 0.6 65 65 S 10 17 30.06 1018 10 16.0934 0 0
10:52 am 10:52 Partly Cloudy 50 10 31 -0.6 48 48 SW 9 15 30.06 1018 10 16.0934 0 0
11:52 am 11:52 Partly Cloudy 53 11.7 29 -1.7 40 40 WSW 17 28 30.04 1017 10 16.0934 0 0
12:52 pm 12:52 Partly Cloudy 54 12.2 29 -1.7 38 38 W 9 15 30.02 1017 10 16.0934 0 0
1:52 pm 13:52 Mostly Sunny 55 12.8 24 -4.4 30 30 WNW 13 20 30.02 1017 10 16.0934 0 0
2:52 pm 14:52 Mostly Sunny 55 12.8 21 -6.1 26 26 WNW 17 28 30.04 1017 10 16.0934 0 0
3:52 pm 15:52 Sunny 54 12.2 18 -7.8 24 24 NW 13 20 30.06 1018 10 16.0934 0 0
4:52 pm 16:52 Sunny 51 10.6 17 -8.3 26 26 NW 13 20 30.08 1019 10 16.0934 0 0
5:52 pm 17:52 Clear 49 9.4 16 -8.9 27 27 WNW 5 7 30.1 1019 10 16.0934 0 0
6:52 pm 18:52 Clear 48 8.9 17 -8.3 29 29 NW 8 13 30.11 1020 10 16.0934 0 0
7:52 pm 19:52 Clear 46 7.8 18 -7.8 32 32 WNW 6 9 30.13 1020 10 16.0934 0 0
8:52 pm 20:52 Clear 46 7.8 18 -7.8 32 32 WNW 7 11 30.13 1020 10 16.0934 0 0
9:52 pm 21:52 Clear 43 6.1 18 -7.8 37 37 WSW 3 6 30.14 1021 10 16.0934 0 0
10:52 pm 22:52 Mostly Clear 40 4.4 25 -3.9 55 55 S 3 6 30.14 1021 10 16.0934 0 0
11:52 pm 23:52 Mostly Clear 38 3.3 28 -2.2 68 68 S 6 9 30.14 1021 10 16.0934 0 0

Powered by AerisWeather